Temp
-9 -9 -9 -9 -9 -9 -9 -9 -9 -9 -9 -9 -9 -9 -9 -9 -8 -9 -9 -9 -10 -10 -10 -10 -10 -10 -10 -10 -10 -10 -9 -10 -10 -10 -10 -10 -9 -9 -9 -9 -9 -9 -9 -9 -9
-9 -10 -10 -9 -9 -9 -9 -9 -9 -9 -9 -9 -10 -10 -9 -9 -9 -9 -9 -9 -9 -10 -10 -10 -10 -10 -10 -10 -10 -9 -9 -10 -10 -10 -10 -10 -9 -9 -9 -9 -9 -9 -9 -9 -9
-9 -9 -10 -10 -10 -10 -10 -10 -10 -10 -10 -10 -10 -10 -10 -9 -9 -10 -9 -9 -9 -9 -10 -10 -10 -10 -10 -10 -9 -9 -9 -10 -10 -10 -10 -10 -9 -9 -9 -9 -9 -9 -9 -9 -9
-10 -10 -9 -10 -10 -10 -10 -10 -10 -10 -10 -10 -10 -10 -10 -10 -10 -10 -10 -9 -10 -10 -9 -10 -10 -10 -10 -10 -10 -10 -10 -10 -10 -10 -10 -10 -10 -10 -10 -10 -9 -9 -9 -9 -9
-12 -10 -10 -10 -10 -11 -11 -11 -11 -11 -10 -10 -11 -11 -10 -10 -10 -10 -10 -10 -9 -9 -10 -10 -10 -10 -10 -10 -10 -10 -10 -10 -10 -10 -10 -10 -10 -10 -10 -10 -9 -9 -10 -9 -9
-13 -12 -12 -11 -11 -10 -11 -11 -11 -11 -11 -11 -11 -10 -10 -9 -10 -10 -10 -10 -10 -10 -10 -10 -10 -10 -10 -10 -10 -10 -10 -10 -10 -10 -10 -10 -10 -10 -10 -11 -9 -10 -10 -9 -9
-15 -14 -14 -13 -12 -11 -11 -12 -12 -11 -12 -12 -12 -11 -10 -9 -11 -10 -10 -10 -10 -10 -10 -10 -10 -10 -10 -10 -10 -10 -10 -10 -10 -10 -10 -10 -9 -9 -10 -10 -10 -10 -10 -10 -10
-18 -16 -15 -14 -14 -13 -12 -13 -13 -13 -13 -13 -13 -12 -9 -10 -12 -11 -11 -11 -11 -10 -11 -11 -10 -10 -10 -10 -10 -10 -10 -10 -10 -10 -10 -10 -9 -10 -10 -10 -10 -10 -10 -10 -10
-19 -19 -18 -16 -15 -15 -15 -15 -15 -15 -14 -14 -13 -12 -10 -10 -12 -12 -12 -12 -11 -11 -11 -11 -10 -10 -10 -10 -10 -10 -10 -10 -10 -10 -10 -10 -9 -10 -10 -10 -10 -10 -10 -10 -10
-21 -21 -20 -19 -17 -16 -17 -17 -18 -16 -16 -16 -15 -13 -10 -10 -13 -13 -12 -12 -12 -12 -11 -11 -10 -10 -10 -10 -9 -10 -10 -10 -10 -10 -10 -10 -9 -10 -10 -10 -10 -10 -10 -10 -10
-22 -22 -22 -21 -19 -18 -18 -19 -18 -18 -18 -17 -16 -14 -13 -12 -13 -14 -13 -13 -13 -12 -12 -11 -11 -9 -10 -10 -11 -11 -11 -11 -11 -11 -10 -10 -10 -10 -10 -10 -10 -10 -10 -10 -10
-24 -24 -24 -24 -23 -21 -20 -19 -20 -20 -20 -19 -18 -16 -15 -13 -14 -15 -14 -13 -13 -12 -12 -12 -10 -11 -11 -11 -11 -11 -11 -11 -11 -11 -11 -10 -10 -10 -10 -10 -10 -10 -10 -10 -10
-26 -26 -25 -25 -25 -26 -25 -23 -22 -22 -21 -20 -19 -18 -17 -17 -15 -16 -15 -15 -14 -14 -13 -13 -11 -12 -12 -12 -11 -11 -11 -11 -11 -11 -11 -11 -9 -10 -10 -10 -10 -10 -11 -11 -11
-27 -26 -26 -26 -26 -26 -26 -25 -25 -24 -23 -21 -20 -19 -18 -18 -16 -17 -17 -16 -15 -14 -14 -14 -13 -13 -13 -13 -13 -12 -12 -13 -13 -12 -12 -12 -9 -10 -10 -10 -10 -11 -11 -11 -11
-27 -27 -27 -26 -27 -27 -26 -26 -26 -26 -25 -22 -21 -20 -20 -19 -17 -18 -18 -18 -16 -15 -16 -13 -13 -13 -13 -12 -14 -13 -14 -15 -14 -14 -12 -11 -11 -7 -9 -10 -11 -11 -11 -11 -11
-28 -28 -28 -27 -27 -26 -26 -26 -26 -26 -26 -24 -22 -21 -21 -20 -19 -18 -19 -19 -18 -18 -17 -16 -15 -16 -14 -15 -15 -15 -14 -15 -14 -14 -12 -11 -11 -7 -8 -10 -11 -11 -11 -11 -11
-29 -29 -29 -28 -26 -26 -26 -26 -26 -26 -26 -25 -23 -22 -21 -21 -20 -19 -20 -20 -19 -18 -17 -17 -16 -15 -15 -16 -16 -15 -15 -15 -15 -15 -11 -12 -12 -8 -9 -10 -11 -11 -11 -11 -11
-29 -29 -29 -27 -27 -27 -26 -26 -27 -26 -26 -25 -25 -23 -22 -22 -22 -21 -21 -21 -21 -19 -18 -18 -17 -16 -16 -15 -16 -17 -16 -15 -14 -14 -13 -13 -11 -9 -10 -10 -11 -12 -12 -12 -12
-29 -29 -29 -27 -27 -27 -27 -27 -26 -26 -26 -25 -25 -25 -24 -22 -22 -22 -21 -21 -21 -20 -19 -19 -19 -18 -17 -17 -17 -16 -17 -15 -17 -16 -15 -14 -12 -11 -11 -11 -11 -12 -12 -12 -12
-29 -29 -29 -28 -27 -27 -27 -27 -26 -26 -26 -26 -26 -26 -25 -24 -23 -22 -22 -22 -22 -21 -21 -20 -20 -19 -19 -19 -19 -18 -17 -18 -19 -18 -16 -14 -13 -12 -11 -12 -13 -13 -13 -13 -12
-29 -29 -29 -27 -28 -27 -27 -27 -26 -26 -26 -26 -26 -27 -26 -26 -25 -23 -22 -22 -22 -21 -22 -21 -21 -20 -20 -20 -19 -19 -19 -19 -19 -19 -18 -16 -14 -14 -13 -13 -13 -14 -14 -14 -13
-29 -29 -29 -28 -27 -27 -27 -26 -26 -26 -26 -26 -27 -27 -27 -26 -26 -25 -24 -23 -23 -23 -22 -21 -21 -21 -20 -20 -20 -20 -20 -20 -19 -18 -17 -17 -15 -15 -14 -13 -15 -15 -15 -15 -15
-29 -29 -28 -28 -27 -27 -27 -27 -27 -27 -26 -26 -26 -27 -27 -27 -26 -26 -25 -24 -23 -23 -22 -22 -22 -22 -22 -21 -20 -20 -20 -20 -20 -20 -20 -19 -17 -17 -16 -16 -16 -16 -16 -16 -15
-28 -28 -28 -27 -27 -27 -27 -27 -27 -27 -27 -26 -26 -27 -28 -27 -27 -26 -26 -25 -24 -23 -23 -23 -23 -22 -21 -20 -20 -20 -19 -19 -20 -20 -19 -19 -17 -17 -17 -17 -18 -17 -17 -17 -17
-28 -28 -28 -27 -27 -27 -28 -27 -27 -27 -27 -27 -26 -27 -28 -27 -27 -27 -26 -26 -25 -24 -24 -24 -23 -22 -22 -21 -21 -21 -21 -21 -21 -20 -20 -18 -19 -18 -18 -18 -18 -19 -18 -17 -17
-28 -28 -28 -27 -28 -29 -28 -28 -28 -27 -27 -27 -27 -28 -29 -28 -27 -27 -26 -26 -26 -25 -24 -24 -23 -23 -22 -22 -22 -21 -21 -21 -22 -21 -21 -20 -19 -19 -19 -20 -19 -18 -18 -18 -18
-28 -28 -28 -28 -29 -29 -28 -28 -28 -28 -27 -27 -27 -27 -28 -28 -27 -27 -27 -26 -26 -25 -25 -24 -24 -23 -22 -22 -22 -22 -20 -21 -21 -21 -21 -20 -20 -20 -20 -20 -20 -20 -19 -19 -19
Height
5730 5731 5734 5736 5738 5740 5743 5746 5749 5751 5754 5757 5761 5764 5767 5770 5774 5778 5782 5782 5786 5788 5790 5792 5795 5796 5798 5800 5803 5804 5806 5810 5810 5810 5812 5813 5813 5814 5816 5817 5818 5819 5821 5822 5822
5714 5716 5718 5721 5724 5727 5729 5733 5736 5740 5743 5746 5749 5753 5757 5761 5765 5770 5770 5773 5777 5780 5783 5785 5787 5789 5791 5794 5796 5798 5803 5806 5807 5807 5808 5810 5811 5812 5813 5813 5814 5816 5818 5819 5819
5695 5700 5702 5705 5708 5712 5716 5719 5722 5726 5731 5734 5737 5741 5745 5749 5756 5761 5760 5765 5768 5771 5773 5776 5779 5782 5785 5788 5790 5793 5800 5800 5801 5802 5804 5806 5807 5809 5811 5811 5810 5813 5814 5816 5816
5676 5678 5684 5688 5691 5695 5700 5703 5707 5712 5716 5720 5726 5728 5733 5738 5744 5749 5752 5756 5760 5762 5765 5767 5771 5774 5778 5780 5784 5785 5792 5794 5796 5797 5798 5802 5804 5806 5808 5805 5809 5810 5809 5810 5812
5656 5659 5662 5667 5672 5676 5681 5686 5691 5696 5700 5706 5711 5715 5720 5725 5733 5736 5741 5744 5749 5753 5757 5759 5761 5765 5769 5772 5774 5776 5784 5786 5787 5789 5793 5796 5799 5801 5806 5802 5806 5807 5807 5807 5807
5634 5637 5641 5643 5650 5655 5660 5666 5672 5677 5683 5688 5694 5699 5705 5712 5719 5722 5728 5732 5737 5741 5746 5750 5754 5757 5758 5761 5764 5769 5774 5777 5779 5782 5786 5789 5792 5795 5803 5795 5801 5803 5803 5804 5804
5612 5614 5618 5622 5626 5632 5639 5644 5650 5656 5663 5669 5676 5681 5689 5701 5704 5709 5714 5719 5723 5729 5734 5740 5743 5746 5749 5753 5755 5759 5764 5766 5771 5775 5778 5780 5782 5793 5794 5791 5796 5797 5799 5800 5800
5588 5591 5594 5598 5603 5609 5616 5623 5628 5635 5644 5650 5656 5663 5672 5685 5690 5697 5699 5705 5711 5716 5723 5727 5731 5736 5737 5741 5745 5750 5753 5755 5765 5770 5769 5773 5778 5786 5787 5786 5787 5790 5793 5795 5796
5564 5566 5570 5573 5580 5585 5592 5598 5604 5611 5620 5629 5636 5642 5654 5669 5676 5682 5686 5692 5697 5703 5708 5714 5717 5723 5726 5729 5733 5737 5740 5750 5759 5761 5762 5764 5770 5778 5777 5779 5780 5782 5786 5790 5790
5536 5541 5549 5550 5556 5560 5567 5574 5583 5588 5597 5605 5612 5619 5640 5652 5659 5662 5671 5675 5682 5687 5693 5698 5701 5706 5712 5716 5720 5728 5740 5745 5748 5753 5752 5753 5758 5767 5768 5770 5772 5775 5779 5782 5784
5514 5518 5522 5526 5530 5536 5543 5550 5564 5567 5573 5588 5597 5605 5621 5629 5641 5646 5653 5660 5665 5670 5676 5682 5689 5695 5705 5712 5719 5723 5726 5730 5734 5736 5739 5742 5748 5755 5758 5758 5762 5768 5771 5773 5778
5493 5497 5502 5508 5512 5514 5516 5531 5542 5549 5552 5562 5573 5583 5593 5602 5615 5630 5634 5643 5648 5656 5662 5668 5675 5686 5694 5697 5702 5707 5712 5716 5720 5725 5728 5734 5739 5744 5749 5751 5754 5758 5761 5766 5769
5474 5478 5483 5488 5495 5497 5500 5515 5516 5523 5526 5540 5554 5564 5580 5584 5594 5609 5619 5624 5633 5640 5648 5655 5670 5673 5679 5685 5690 5694 5700 5706 5710 5713 5716 5721 5725 5731 5741 5742 5744 5747 5754 5757 5763
5458 5461 5465 5473 5474 5488 5488 5498 5496 5503 5502 5512 5535 5545 5559 5563 5572 5590 5602 5608 5615 5625 5632 5638 5649 5653 5659 5669 5677 5680 5689 5693 5696 5699 5704 5709 5704 5718 5726 5734 5737 5738 5743 5750 5751
5441 5445 5449 5454 5460 5474 5483 5486 5485 5486 5477 5498 5517 5524 5541 5546 5570 5573 5586 5587 5595 5606 5611 5623 5631 5635 5644 5657 5662 5669 5676 5680 5682 5685 5689 5697 5697 5707 5713 5720 5728 5733 5734 5736 5741
5427 5431 5434 5438 5448 5463 5469 5468 5473 5472 5463 5481 5498 5514 5525 5536 5549 5559 5562 5570 5581 5588 5598 5609 5616 5623 5635 5644 5649 5655 5660 5664 5668 5672 5674 5682 5685 5695 5698 5708 5720 5723 5724 5726 5731
5414 5419 5421 5427 5439 5451 5453 5455 5457 5453 5467 5477 5484 5500 5515 5525 5534 5543 5546 5549 5559 5566 5575 5588 5596 5607 5616 5624 5631 5633 5640 5645 5649 5649 5658 5663 5672 5686 5689 5694 5706 5713 5715 5717 5719
5401 5406 5411 5419 5429 5436 5439 5442 5442 5457 5468 5474 5478 5487 5496 5510 5512 5524 5531 5538 5547 5561 5569 5579 5585 5593 5600 5607 5615 5621 5627 5635 5635 5641 5652 5657 5665 5680 5685 5683 5689 5696 5703 5706 5708
5390 5394 5398 5410 5419 5424 5427 5428 5446 5458 5464 5466 5469 5472 5479 5492 5502 5511 5516 5528 5541 5552 5559 5564 5571 5582 5591 5600 5605 5611 5612 5630 5626 5630 5638 5644 5653 5662 5669 5673 5675 5680 5689 5695 5699
5379 5384 5392 5403 5409 5416 5416 5430 5443 5449 5452 5453 5456 5461 5469 5477 5485 5496 5504 5515 5528 5539 5548 5553 5560 5570 5579 5583 5587 5596 5615 5610 5611 5616 5622 5632 5640 5650 5656 5660 5661 5667 5674 5684 5689
5369 5376 5385 5393 5402 5407 5413 5428 5436 5441 5442 5445 5446 5451 5459 5467 5473 5482 5493 5510 5520 5532 5537 5543 5549 5557 5561 5564 5575 5585 5585 5593 5600 5606 5614 5622 5627 5637 5643 5647 5651 5656 5662 5671 5678
5359 5367 5377 5384 5395 5404 5414 5422 5430 5432 5434 5437 5439 5444 5450 5459 5464 5469 5477 5497 5509 5518 5522 5534 5535 5539 5550 5556 5563 5571 5578 5586 5589 5599 5602 5608 5616 5626 5632 5638 5638 5645 5651 5658 5665
5352 5363 5373 5382 5390 5401 5410 5416 5421 5425 5429 5432 5433 5437 5443 5450 5456 5461 5469 5485 5494 5502 5511 5520 5517 5524 5531 5540 5548 5555 5566 5570 5576 5585 5589 5599 5608 5618 5620 5624 5627 5634 5640 5646 5653
5349 5355 5365 5377 5389 5397 5404 5410 5416 5419 5423 5426 5428 5430 5435 5441 5447 5454 5461 5472 5481 5492 5499 5504 5508 5514 5524 5540 5548 5549 5560 5564 5568 5572 5584 5587 5604 5606 5612 5614 5616 5622 5630 5635 5640
5344 5355 5370 5377 5385 5392 5398 5404 5409 5413 5417 5420 5422 5424 5428 5434 5440 5446 5455 5462 5470 5479 5485 5492 5499 5507 5519 5527 5531 5539 5545 5552 5553 5566 5567 5585 5590 5599 5601 5604 5605 5611 5617 5624 5629
5345 5354 5366 5374 5379 5387 5393 5398 5404 5407 5410 5414 5416 5419 5423 5429 5435 5442 5448 5454 5462 5470 5476 5483 5492 5499 5506 5514 5519 5526 5532 5539 5546 5555 5558 5569 5576 5584 5586 5587 5595 5602 5606 5611 5618
5347 5356 5360 5369 5376 5383 5387 5393 5397 5399 5404 5406 5409 5410 5413 5423 5427 5436 5442 5447 5453 5461 5468 5475 5483 5489 5497 5505 5510 5511 5524 5530 5538 5543 5551 5555 5574 5572 5576 5581 5587 5591 5595 5599 5606
Wind_Speed
61 60 60 59 57 56 54 52 50 48 46 46 48 47 46 45 44 43 40 44 42 41 40 38 36 35 33 29 26 24 19 14 16 18 15 15 15 14 13 16 16 15 14 13 13
66 65 64 63 62 61 59 57 55 53 51 50 49 49 49 48 47 45 48 46 44 44 43 43 41 40 38 35 33 31 23 17 19 20 20 18 17 15 15 15 18 16 15 15 16
73 72 70 69 67 65 63 62 60 58 55 55 53 51 51 50 50 47 51 48 47 47 47 46 45 43 42 40 37 35 26 26 25 24 23 20 19 18 16 17 19 17 18 18 19
76 75 75 74 72 71 68 67 65 63 61 59 57 56 54 54 54 51 52 52 50 50 49 48 47 46 45 42 41 41 35 34 32 30 28 25 21 19 18 24 19 17 18 19 20
70 75 78 78 79 77 73 71 70 67 65 63 61 60 59 57 55 55 54 55 54 54 53 51 49 48 48 47 46 45 40 40 40 37 34 31 27 24 17 26 21 18 19 20 20
72 72 73 78 81 82 81 77 74 72 70 67 65 65 63 62 59 59 58 58 58 56 56 54 53 51 51 51 51 47 45 44 43 41 39 36 35 31 19 31 24 20 21 20 21
72 73 74 76 81 85 84 82 80 79 75 73 70 69 70 65 63 61 61 60 62 59 58 57 56 56 54 53 53 51 49 48 47 43 43 41 41 31 31 35 30 26 23 21 22
67 72 76 80 81 84 87 87 83 81 78 75 73 73 74 68 65 64 64 63 62 62 61 60 58 58 57 58 55 53 53 54 47 44 46 46 40 34 35 38 38 35 29 25 24
68 67 71 78 83 88 90 89 87 84 81 77 78 80 80 73 67 66 66 64 63 63 63 64 64 62 62 60 59 59 57 51 46 47 48 48 42 37 40 41 40 40 35 31 29
71 66 65 72 79 86 90 92 85 87 84 81 82 86 85 78 69 71 69 69 67 65 65 66 68 67 67 66 63 58 51 48 49 49 50 51 48 40 43 43 43 42 39 36 33
69 67 62 64 73 81 88 91 88 89 86 83 83 84 81 80 74 71 72 72 71 71 70 67 68 68 64 62 60 59 57 55 53 54 54 52 50 47 46 47 45 42 41 39 35
64 62 58 60 69 78 85 85 87 86 87 82 81 86 85 86 81 72 74 75 75 73 72 72 72 67 63 62 62 62 62 61 60 58 56 55 53 51 47 46 45 43 44 40 38
58 53 54 61 64 62 65 67 76 83 88 86 82 84 81 83 84 76 74 76 75 73 72 72 68 66 64 64 64 63 62 60 61 61 60 59 57 55 50 48 47 45 42 42 38
53 52 56 58 60 51 53 53 51 67 84 92 85 86 84 85 86 78 74 75 78 77 72 72 71 71 69 66 63 65 62 60 60 61 62 60 66 58 53 50 48 46 43 40 41
50 47 51 52 53 58 59 51 50 49 66 88 87 87 84 84 82 78 73 75 78 76 77 78 76 75 72 70 64 66 59 57 59 60 62 62 65 62 57 54 48 45 43 45 43
43 42 44 46 50 45 53 58 52 51 58 66 87 84 83 82 80 78 75 73 74 74 74 73 72 71 70 65 62 62 61 60 60 62 68 67 67 65 65 56 45 45 46 44 43
40 41 43 48 47 49 54 49 49 53 50 57 68 79 81 77 78 77 76 77 77 78 78 76 76 75 73 70 67 69 67 65 66 69 73 72 68 66 65 60 47 44 46 45 46
38 39 39 45 46 54 51 51 51 44 38 36 43 64 79 77 77 74 72 72 70 71 73 73 75 77 76 75 71 67 67 68 70 71 68 66 67 61 59 61 55 49 46 48 48
36 39 43 43 48 54 55 49 41 37 38 37 43 43 61 76 76 73 72 69 66 66 69 71 70 69 69 67 67 67 69 64 63 64 65 68 67 64 60 59 57 54 48 46 47
38 39 50 38 48 53 53 55 34 22 18 25 40 47 48 60 69 71 72 67 59 59 61 62 60 63 63 63 62 63 59 62 62 64 67 67 66 63 62 60 59 56 51 43 45
40 42 54 55 53 53 49 34 28 26 20 20 31 42 43 50 47 60 67 60 55 52 49 53 59 58 57 61 62 61 62 63 60 59 62 65 66 63 61 61 61 55 49 43 41
44 50 63 55 62 49 37 30 27 21 19 13 25 34 43 37 47 46 53 54 49 44 47 47 50 56 58 55 55 56 55 55 58 61 64 64 65 62 62 61 60 55 51 48 42
44 55 57 54 47 37 34 31 27 20 18 12 14 32 40 42 38 41 44 44 44 46 44 44 53 54 55 56 57 57 57 57 55 53 55 55 59 56 57 57 54 50 46 42 38
58 55 61 52 42 36 32 30 28 24 19 19 13 20 35 43 44 42 37 43 45 43 45 46 48 52 50 46 47 53 53 53 54 55 54 57 54 54 51 50 49 47 42 38 35
54 55 49 47 34 33 33 31 29 25 22 20 17 19 32 39 38 44 39 39 46 44 44 47 46 46 43 42 46 46 48 49 53 50 53 48 49 46 47 48 46 43 42 40 40
43 44 49 43 36 31 29 28 26 26 25 24 22 26 35 35 38 34 34 39 44 45 45 46 42 43 43 44 46 46 48 48 46 45 49 48 48 45 47 50 48 46 46 44 40
42 42 35 32 30 28 24 26 25 25 27 28 28 33 37 41 34 34 35 38 43 45 46 45 46 41 43 43 44 50 45 47 47 48 44 46 41 46 44 44 44 46 50 51 46
Wind_Direction
262 262 261 261 260 258 257 255 254 250 247 244 242 241 239 238 238 241 241 245 245 245 245 244 246 248 249 250 251 248 245 247 251 254 249 243 244 247 248 248 251 249 252 258 259
261 261 260 258 258 258 257 254 254 252 249 246 243 241 241 239 237 239 240 240 243 243 245 245 243 244 247 249 250 253 252 245 251 253 253 250 252 248 245 249 256 261 260 259 262
264 260 259 258 257 256 256 255 254 252 249 246 244 241 240 240 237 239 238 240 240 243 243 243 245 247 246 248 250 254 252 249 246 250 253 253 256 257 254 251 249 253 255 252 254
263 262 260 259 258 257 255 254 253 252 251 249 246 242 240 238 238 236 240 238 241 238 242 242 245 247 248 248 250 250 249 249 249 249 252 254 254 256 261 260 257 255 256 255 253
263 259 257 257 258 257 256 254 253 251 250 248 247 244 242 239 237 238 237 239 239 241 241 240 241 244 247 248 248 249 247 247 249 251 251 254 256 254 256 264 261 258 259 258 258
267 261 255 252 253 254 255 254 253 251 250 248 245 246 244 243 239 239 236 237 238 238 240 242 242 243 244 247 249 249 248 248 248 250 253 254 255 254 257 261 258 260 261 262 262
265 261 255 251 249 249 249 250 252 250 249 248 246 244 247 243 239 239 238 236 237 239 238 240 242 241 243 245 246 249 249 249 249 249 251 252 251 256 248 258 264 257 260 264 268
263 259 256 248 247 246 246 247 246 248 247 247 245 245 245 244 238 239 239 238 237 237 239 239 240 242 242 242 243 246 248 249 250 252 253 253 253 253 251 254 258 260 258 259 265
270 265 257 251 247 245 245 243 244 243 243 241 242 244 244 242 240 239 238 238 238 237 237 238 238 240 243 242 244 244 245 249 252 255 255 256 255 251 254 253 256 258 258 258 259
278 274 262 255 248 243 243 243 240 240 240 237 237 240 242 241 235 237 237 236 237 236 237 238 238 238 240 241 245 248 252 253 254 255 256 255 254 249 252 254 254 257 259 259 258
275 274 269 257 250 246 243 242 238 239 237 237 236 238 240 240 235 232 236 235 235 236 237 236 239 244 245 247 247 248 248 248 247 247 248 253 253 252 250 251 253 257 258 257 258
274 271 262 248 246 248 247 242 239 237 239 234 232 233 232 234 233 228 233 236 236 238 238 239 243 243 243 242 244 245 245 245 247 248 250 251 254 254 252 255 256 255 260 260 258
268 263 253 246 246 254 256 251 242 237 237 233 231 231 231 232 233 230 229 232 235 235 237 240 242 243 243 243 244 245 247 247 248 249 250 251 254 254 254 254 256 255 256 260 261
263 257 251 247 244 236 251 252 249 244 239 234 231 231 230 230 230 231 228 231 232 233 234 235 237 238 238 240 242 244 245 246 247 249 250 250 253 251 252 253 255 257 259 257 257
262 260 254 244 237 225 236 251 246 245 245 236 229 231 230 230 230 232 231 229 232 231 232 233 234 236 236 240 239 242 242 244 245 246 248 249 254 254 251 252 253 254 256 257 256
260 251 246 233 229 231 234 232 243 243 243 241 236 230 231 231 230 229 231 231 231 233 233 233 234 235 238 237 239 241 241 242 243 245 249 250 250 251 257 254 250 253 253 255 258
250 243 239 220 215 224 225 232 236 235 243 245 240 236 232 233 233 230 232 232 227 228 229 229 232 233 233 234 234 235 234 236 238 239 246 247 247 251 256 258 257 249 253 254 255
238 240 225 211 216 221 223 230 228 243 248 256 255 242 236 234 233 232 236 235 232 233 234 235 234 234 233 235 234 234 236 240 242 243 247 251 255 256 259 263 260 253 246 249 251
234 236 213 197 215 218 226 228 242 247 251 255 254 249 242 236 235 235 238 238 237 236 236 237 235 235 238 239 238 238 236 242 242 243 244 247 249 252 253 256 258 255 248 246 249
222 223 199 204 217 222 218 231 227 223 235 247 239 237 242 239 236 234 235 237 238 236 235 238 239 238 238 239 238 238 240 238 237 240 243 246 249 249 250 253 255 256 257 249 246
215 215 189 213 218 215 217 215 218 235 241 249 233 227 233 234 232 235 238 240 240 238 238 238 239 237 237 236 237 237 234 233 235 240 244 247 247 247 248 251 253 255 258 258 251
207 203 200 207 214 212 216 210 214 224 234 237 230 224 224 228 232 226 230 234 235 233 235 237 236 236 238 237 237 236 238 241 243 242 243 243 245 248 250 251 255 257 258 256 251
195 187 206 210 208 214 212 210 219 220 225 230 231 222 221 225 230 226 223 220 223 225 226 227 230 230 232 230 230 232 233 234 236 234 236 241 245 248 252 255 259 260 261 260 254
196 201 203 200 206 207 209 214 222 222 232 237 251 229 225 227 229 227 223 211 213 214 217 223 230 233 238 243 241 239 240 239 238 238 241 241 243 246 247 252 256 257 253 252 247
189 201 203 207 204 208 210 214 222 229 224 241 257 239 225 223 231 232 229 220 210 209 214 220 223 227 230 234 235 234 234 237 238 238 235 242 241 242 245 247 246 248 249 245 246
194 198 205 209 196 203 207 214 216 226 232 237 249 233 221 226 227 222 230 222 215 208 211 218 220 223 224 225 228 228 229 231 232 232 235 233 232 233 235 238 241 243 245 248 250
192 201 192 197 195 202 208 218 229 238 243 249 247 230 221 215 213 226 229 223 212 213 213 214 216 217 219 221 226 228 226 230 230 228 228 226 229 229 233 238 241 244 246 248 245